GW0967 Weather Reports


time (UTC)temp
C
wind
direction
speed
KPH
gust
KPH
rain 1hr
cm
rain 24hr
cm
rain mn
cm
humidity
%
barometer
mb
20260507164245 13 68 11.3 12.9 0.00 0.00 0.00 27 1011.7
20260507163742 13 39 8.0 16.1 0.00 0.00 0.00 27 1011.6
20260507163240 13 68 14.5 16.1 0.00 0.00 0.00 27 1011.7
20260507162736 13 350 9.7 16.1 0.00 0.00 0.00 27 1011.5
20260507162232 14 352 9.7 20.9 0.00 0.00 0.00 27 1011.5
20260507161729 13 347 3.2 4.8 0.00 0.00 0.00 28 1011.5
20260507161225 13 5 12.9 17.7 0.00 0.00 0.00 27 1011.5
20260507160721 13 349 4.8 14.5 0.00 0.00 0.00 28 1011.5
20260507160218 13 54 4.8 19.3 0.00 0.00 0.00 28 1011.2
20260507155714 14 60 14.5 16.1 0.00 0.00 0.00 27 1011.5
20260507155210 15 82 8.0 12.9 0.00 0.00 0.00 25 1011.5
20260507154707 15 56 4.8 17.7 0.00 0.00 0.00 26 1011.1
20260507154205 15 21 12.9 14.5 0.00 0.00 0.00 26 1011.5
20260507153701 15 339 8.0 14.5 0.00 0.00 0.00 27 1011.5
20260507153157 15 333 17.7 19.3 0.00 0.00 0.00 27 1011.4
20260507152654 15 93 14.5 14.5 0.00 0.00 0.00 26 1011.2
20260507152150 14 53 4.8 22.5 0.00 0.00 0.00 27 1011.4
20260507151646 14 348 4.8 11.3 0.00 0.00 0.00 26 1011.5
20260507151143 14 337 12.9 12.9 0.00 0.00 0.00 26 1011.4
20260507150640 14 34 0.0 14.5 0.00 0.00 0.00 28 1011.6
20260507150137 14 61 9.7 12.9 0.00 0.00 0.00 27 1011.6
20260507145632 14 357 4.8 9.7 0.00 0.00 0.00 27 1011.5
20260507145130 13 89 8.0 14.5 0.00 0.00 0.00 27 1011.6
20260507144626 13 79 4.8 14.5 0.00 0.00 0.00 27 1011.5
20260507144124 13 16 8.0 11.3 0.00 0.00 0.00 28 1011.7
20260507143620 13 8 4.8 6.4 0.00 0.00 0.00 29 1011.4
20260507143118 13 9 9.7 14.5 0.00 0.00 0.00 28 1011.7
20260507142613 13 49 3.2 12.9 0.00 0.00 0.00 29 1011.5
20260507142110 12 25 6.4 12.9 0.00 0.00 0.00 29 1011.6
20260507141606 12 11 8.0 8.0 0.00 0.00 0.00 29 1011.6
20260507141103 12 24 8.0 11.3 0.00 0.00 0.00 29 1011.4
20260507140600 12 84 8.0 9.7 0.00 0.00 0.00 29 1011.5
20260507140057 11 356 3.2 8.0 0.00 0.00 0.00 29 1011.4
20260507135554 12 355 3.2 11.3 0.00 0.00 0.00 29 1011.4
20260507135051 12 2 8.0 12.9 0.00 0.00 0.00 29 1011.1
20260507134548 12 308 4.8 8.0 0.00 0.00 0.00 29 1011.2
20260507134043 11 354 4.8 6.4 0.00 0.00 0.00 30 1011.4
20260507133540 11 32 4.8 6.4 0.00 0.00 0.00 30 1011.4
20260507133038 11 325 3.2 6.4 0.00 0.00 0.00 30 1011.4
20260507132534 11 0 0.0 6.4 0.00 0.00 0.00 30 1011.2
20260507132031 11 355 4.8 6.4 0.00 0.00 0.00 31 1011.2
20260507131528 11 359 4.8 8.0 0.00 0.00 0.00 31 1010.9
20260507131025 11 5 0.0 6.4 0.00 0.00 0.00 31 1010.9
20260507130522 11 74 3.2 6.4 0.00 0.00 0.00 31 1011.0
20260507130020 11 47 0.0 4.8 0.00 0.00 0.00 31 1011.1
20260507125518 11 127 3.2 4.8 0.00 0.00 0.00 38 1010.8
20260507125015 10 120 3.2 3.2 0.00 0.00 0.00 44 1010.9
20260507124512 7 110 4.8 4.8 0.00 0.00 0.00 45 1010.9
20260507124009 6 78 3.2 3.2 0.00 0.00 0.00 49 1010.8
20260507123507 5 132 4.8 4.8 0.00 0.00 0.00 51 1010.6
20260507123004 3 97 3.2 3.2 0.00 0.00 0.00 52 1010.7
20260507122459 3 106 3.2 4.8 0.00 0.00 0.00 55 1010.6
20260507121955 2 112 3.2 3.2 0.00 0.00 0.00 58 1010.8
20260507121451 1 103 0.0 3.2 0.00 0.00 0.00 62 1010.9
20260507120947 0 97 0.0 4.8 0.00 0.00 0.00 63 1010.4
20260507120443 0 112 3.2 4.8 0.00 0.00 0.00 63 1010.7
20260507115940 0 37 0.0 4.8 0.00 0.00 0.00 65 1010.6
20260507115436 -1 127 3.2 3.2 0.00 0.00 0.00 65 1010.6
20260507114932 0 98 3.2 4.8 0.00 0.00 0.00 64 1010.4
20260507114429 0 118 3.2 3.2 0.00 0.00 0.00 64 1010.3
20260507113926 0 95 4.8 6.4 0.00 0.00 0.00 63 1010.4
20260507113423 0 107 3.2 3.2 0.00 0.00 0.00 63 1010.0
20260507112921 -1 77 0.0 3.2 0.00 0.00 0.00 65 1010.0
20260507112418 -1 108 3.2 4.8 0.00 0.00 0.00 64 1010.1
20260507111915 -1 115 3.2 3.2 0.00 0.00 0.00 64 1010.3
20260507111412 -1 117 3.2 4.8 0.00 0.00 0.00 64 1010.0
20260507110908 0 98 3.2 4.8 0.00 0.00 0.00 62 1010.1
20260507110404 0 77 3.2 4.8 0.00 0.00 0.00 62 1010.0
20260507105901 0 122 3.2 3.2 0.00 0.00 0.00 61 1009.8
20260507105358 0 138 3.2 4.8 0.00 0.00 0.00 62 1009.9
20260507104855 0 100 3.2 3.2 0.00 0.00 0.00 62 1009.7
20260507104351 0 97 0.0 4.8 0.00 0.00 0.00 63 1009.9
20260507103847 0 102 3.2 4.8 0.00 0.00 0.00 63 1009.7
20260507103344 -1 114 3.2 3.2 0.00 0.00 0.00 64 1009.8
20260507102840 -1 128 3.2 3.2 0.00 0.00 0.00 65 1009.6
20260507102337 -1 95 3.2 4.8 0.00 0.00 0.00 65 1009.7
20260507101833 -1 106 4.8 4.8 0.00 0.00 0.00 64 1009.8
20260507101328 0 109 3.2 4.8 0.00 0.00 0.00 63 1009.8
20260507100825 0 101 3.2 3.2 0.00 0.00 0.00 64 1009.6
20260507100323 0 108 3.2 3.2 0.00 0.00 0.00 64 1009.6
20260507095821 -1 104 0.0 4.8 0.00 0.00 0.00 65 1009.8
20260507095317 -1 95 3.2 4.8 0.00 0.00 0.00 65 1010.1
20260507094815 0 106 3.2 4.8 0.00 0.00 0.00 65 1009.8
20260507094311 0 138 0.0 3.2 0.00 0.00 0.00 64 1009.8
20260507093808 0 105 3.2 4.8 0.00 0.00 0.00 64 1010.0
20260507093307 0 118 3.2 4.8 0.00 0.00 0.00 64 1009.9
20260507092804 -1 97 3.2 3.2 0.00 0.00 0.00 66 1009.5
20260507092300 -1 128 0.0 4.8 0.00 0.00 0.00 66 1009.6
20260507091757 -1 92 3.2 3.2 0.00 0.00 0.00 66 1009.5
20260507091254 -1 129 3.2 4.8 0.00 0.00 0.00 66 1009.6
20260507090754 -1 107 3.2 4.8 0.00 0.00 0.00 64 1009.5
20260507090251 0 113 0.0 3.2 0.00 0.00 0.00 63 1009.5
20260507085748 0 93 3.2 3.2 0.00 0.00 0.00 62 1009.5
20260507085244 0 118 3.2 4.8 0.00 0.00 0.00 62 1009.5
20260507084742 0 127 3.2 3.2 0.00 0.00 0.00 64 1009.4
20260507084238 0 93 0.0 4.8 0.00 0.00 0.00 64 1009.3
20260507083736 0 94 3.2 3.2 0.00 0.00 0.00 63 1009.4
20260507083232 0 126 3.2 4.8 0.00 0.00 0.00 62 1009.5
20260507082728 0 116 3.2 4.8 0.00 0.00 0.00 62 1009.3
20260507082224 0 99 0.0 3.2 0.00 0.00 0.00 63 1009.5
20260507081721 0 111 3.2 4.8 0.00 0.00 0.00 62 1009.5
20260507081217 0 118 3.2 3.2 0.00 0.00 0.00 62 1009.5
20260507080714 0 107 3.2 4.8 0.00 0.00 0.00 62 1009.7
20260507080210 0 110 3.2 4.8 0.00 0.00 0.00 60 1009.7
20260507075705 0 104 3.2 4.8 0.00 0.00 0.00 61 1009.9
20260507075202 0 114 3.2 4.8 0.00 0.00 0.00 60 1009.8
20260507074658 0 79 3.2 4.8 0.00 0.00 0.00 60 1010.0
20260507074157 0 110 4.8 4.8 0.00 0.00 0.00 59 1010.0
20260507073653 1 108 3.2 6.4 0.00 0.00 0.00 58 1010.1
20260507073149 1 92 4.8 6.4 0.00 0.00 0.00 56 1010.1
20260507072647 1 107 0.0 4.8 0.00 0.00 0.00 55 1009.9
20260507072144 1 148 3.2 3.2 0.00 0.00 0.00 56 1009.9
20260507071642 1 82 3.2 4.8 0.00 0.00 0.00 55 1009.9
20260507071138 1 121 3.2 3.2 0.00 0.00 0.00 60 1010.0
20260507070635 0 122 0.0 3.2 0.00 0.00 0.00 60 1009.8
20260507070132 0 87 3.2 4.8 0.00 0.00 0.00 61 1010.0
20260507065628 1 109 3.2 4.8 0.00 0.00 0.00 60 1010.1
20260507065125 1 110 3.2 4.8 0.00 0.00 0.00 59 1010.3
20260507064623 1 95 3.2 4.8 0.00 0.00 0.00 57 1010.3
20260507064121 1 117 4.8 4.8 0.00 0.00 0.00 56 1010.3
20260507063618 1 32 0.0 3.2 0.00 0.00 0.00 57 1010.1
20260507063115 1 115 4.8 4.8 0.00 0.00 0.00 56 1010.4
20260507062612 2 146 3.2 3.2 0.00 0.00 0.00 57 1010.5
20260507062110 1 103 0.0 4.8 0.00 0.00 0.00 56 1010.6
20260507061607 2 113 6.4 6.4 0.00 0.00 0.00 55 1010.6
20260507061105 2 135 4.8 4.8 0.00 0.00 0.00 55 1010.8
20260507060603 2 49 4.8 6.4 0.00 0.00 0.00 54 1010.7
20260507060059 2 116 4.8 4.8 0.00 0.00 0.00 52 1010.6
20260507055554 2 64 0.0 6.4 0.00 0.00 0.00 52 1010.6
20260507055051 2 58 3.2 4.8 0.00 0.00 0.00 51 1010.5
20260507054547 3 83 3.2 4.8 0.00 0.00 0.00 50 1010.6
20260507054044 3 131 0.0 3.2 0.00 0.00 0.00 48 1010.8
20260507053542 3 75 3.2 3.2 0.00 0.00 0.00 48 1010.5
20260507053040 3 110 0.0 3.2 0.00 0.00 0.00 48 1010.7
20260507052537 3 55 0.0 3.2 0.00 0.00 0.00 50 1010.7
20260507052034 2 130 0.0 3.2 0.00 0.00 0.00 52 1010.6
20260507051532 2 92 3.2 4.8 0.00 0.00 0.00 52 1010.9
20260507051029 2 150 0.0 4.8 0.00 0.00 0.00 54 1010.7
20260507050525 2 123 0.0 3.2 0.00 0.00 0.00 53 1010.8
20260507050021 3 101 4.8 4.8 0.00 0.00 0.00 51 1010.8
20260507045518 3 99 3.2 3.2 0.00 0.00 0.00 48 1011.0
20260507045016 4 122 4.8 4.8 0.00 0.00 0.00 47 1010.9
20260507044512 4 112 3.2 4.8 0.00 0.00 0.00 47 1010.7
20260507044009 4 139 3.2 4.8 0.00 0.00 0.00 47 1011.0
20260507043505 4 137 3.2 4.8 0.00 0.00 0.00 48 1011.2
20260507043001 4 130 3.2 4.8 0.00 0.00 0.00 48 1011.2
20260507042458 4 140 3.2 3.2 0.00 0.00 0.00 49 1011.4
20260507041954 4 136 3.2 4.8 0.00 0.00 0.00 49 1011.2
20260507041451 3 151 0.0 3.2 0.00 0.00 0.00 49 1011.4
20260507040948 3 141 3.2 3.2 0.00 0.00 0.00 50 1011.6
20260507040443 3 110 3.2 3.2 0.00 0.00 0.00 50 1011.8
20260507035939 3 76 0.0 3.2 0.00 0.00 0.00 49 1011.6
20260507035436 3 88 0.0 3.2 0.00 0.00 0.00 49 1011.8
20260507034933 4 101 3.2 3.2 0.00 0.00 0.00 49 1011.6
20260507034430 5 117 3.2 4.8 0.00 0.00 0.00 48 1011.7
20260507033928 5 111 3.2 4.8 0.00 0.00 0.00 45 1011.8
20260507033425 5 125 3.2 3.2 0.00 0.00 0.00 45 1011.9
20260507032922 5 115 3.2 4.8 0.00 0.00 0.00 45 1012.0
20260507032419 5 148 0.0 3.2 0.00 0.00 0.00 46 1012.1
20260507031915 5 119 0.0 3.2 0.00 0.00 0.00 48 1011.9
20260507031412 5 113 0.0 3.2 0.00 0.00 0.00 48 1012.2
20260507030909 5 132 0.0 3.2 0.00 0.00 0.00 47 1012.2
20260507030406 5 121 3.2 4.8 0.00 0.00 0.00 46 1012.2
20260507025903 5 112 0.0 3.2 0.00 0.00 0.00 45 1012.3
20260507025400 6 107 3.2 3.2 0.00 0.00 0.00 43 1012.1
20260507024858 6 123 0.0 3.2 0.00 0.00 0.00 42 1012.1
20260507024355 6 130 0.0 3.2 0.00 0.00 0.00 40 1012.2
20260507023851 7 77 0.0 3.2 0.00 0.00 0.00 39 1012.1
20260507023348 7 51 0.0 3.2 0.00 0.00 0.00 39 1012.1
20260507022845 7 89 0.0 3.2 0.00 0.00 0.00 39 1012.1
20260507022342 7 84 0.0 3.2 0.00 0.00 0.00 38 1012.2
20260507021837 7 106 0.0 0.0 0.00 0.00 0.00 38 1012.2
20260507021333 7 66 0.0 3.2 0.00 0.00 0.00 37 1012.1
20260507020831 8 113 0.0 3.2 0.00 0.00 0.00 36 1012.1
20260507020328 8 117 3.2 3.2 0.00 0.00 0.00 35 1012.2
20260507015825 9 65 0.0 3.2 0.00 0.00 0.00 33 1012.5
20260507015323 10 128 3.2 4.8 0.00 0.00 0.00 32 1012.3
20260507014820 10 160 3.2 6.4 0.00 0.00 0.00 32 1012.0
20260507014316 10 133 0.0 4.8 0.00 0.00 0.00 31 1012.3
20260507013812 10 126 3.2 4.8 0.00 0.00 0.00 30 1012.3
20260507013310 10 122 3.2 6.4 0.00 0.00 0.00 30 1012.5
20260507012807 11 121 4.8 9.7 0.00 0.00 0.00 29 1012.1
20260507012306 11 95 6.4 12.9 0.00 0.00 0.00 29 1012.5
20260507011800 11 137 4.8 6.4 0.00 0.00 0.00 30 1012.5
20260507011257 11 102 3.2 8.0 0.00 0.00 0.00 28 1012.3
20260507010756 11 100 8.0 9.7 0.00 0.00 0.00 28 1012.2
20260507010252 11 105 6.4 8.0 0.00 0.00 0.00 29 1012.2
20260507005750 11 154 6.4 9.7 0.00 0.00 0.00 28 1012.2
20260507005246 12 143 4.8 11.3 0.00 0.00 0.00 27 1012.3
20260507004743 12 112 11.3 14.5 0.00 0.00 0.00 28 1012.5
20260507004241 12 133 8.0 11.3 0.00 0.00 0.00 28 1012.1
20260507003736 12 147 3.2 9.7 0.00 0.00 0.00 28 1012.3
20260507003232 11 118 3.2 8.0 0.00 0.00 0.00 29 1012.3
20260507002728 12 170 9.7 11.3 0.00 0.00 0.00 27 1012.6
20260507002224 12 88 14.5 20.9 0.00 0.00 0.00 27 1012.6
20260507001721 12 101 8.0 16.1 0.00 0.00 0.00 27 1012.7
20260507001219 12 80 11.3 14.5 0.00 0.00 0.00 28 1012.6
20260507000715 12 73 8.0 9.7 0.00 0.00 0.00 27 1012.8
20260507000212 12 57 4.8 11.3 0.00 0.00 0.00 27 1012.8
20260506235708 13 83 11.3 11.3 0.00 0.00 0.00 25 1013.0
20260506235203 13 359 4.8 8.0 0.00 0.00 0.00 26 1012.9
20260506234700 13 26 0.0 4.8 0.00 0.00 0.00 26 1013.0
20260506234157 12 13 4.8 8.0 0.00 0.00 0.00 27 1013.1
20260506233655 13 306 3.2 8.0 0.00 0.00 0.00 26 1013.1
20260506233151 13 95 6.4 8.0 0.00 0.00 0.00 25 1013.3
20260506232647 13 302 6.4 6.4 0.00 0.00 0.00 26 1013.6
20260506232143 13 332 6.4 8.0 0.00 0.00 0.00 26 1013.4
20260506231640 12 338 6.4 14.5 0.00 0.00 0.00 26 1013.1
20260506231139 13 11 4.8 6.4 0.00 0.00 0.00 25 1013.4
20260506230635 12 147 4.8 9.7 0.00 0.00 0.00 27 1013.2
20260506230132 12 62 12.9 12.9 0.00 0.00 0.00 26 1013.2
20260506225629 13 115 11.3 17.7 0.00 0.00 0.00 25 1013.4
20260506225125 13 191 3.2 9.7 0.00 0.00 0.00 26 1013.4
20260506224622 12 14 4.8 6.4 0.00 0.00 0.00 26 1013.7
20260506224118 12 96 11.3 14.5 0.00 0.00 0.00 26 1013.3
20260506223615 13 106 6.4 19.3 0.00 0.00 0.00 26 1013.6
20260506223111 13 116 6.4 12.9 0.00 0.00 0.00 26 1013.6
20260506222608 13 323 4.8 11.3 0.00 0.00 0.00 26 1013.9
20260506222104 12 22 4.8 14.5 0.00 0.00 0.00 26 1013.8
20260506221602 13 105 8.0 17.7 0.00 0.00 0.00 26 1013.9
20260506221100 13 97 9.7 14.5 0.00 0.00 0.00 26 1014.0
20260506220556 13 94 9.7 17.7 0.00 0.00 0.00 27 1014.1
20260506220051 12 359 3.2 11.3 0.00 0.00 0.00 27 1014.2
20260506215548 13 125 9.7 14.5 0.00 0.00 0.00 26 1014.1
20260506215044 13 165 8.0 12.9 0.00 0.00 0.00 26 1014.7
20260506214541 13 112 17.7 17.7 0.00 0.00 0.00 26 1014.2
20260506214038 13 121 6.4 16.1 0.00 0.00 0.00 25 1014.4
20260506213536 13 161 14.5 14.5 0.00 0.00 0.00 27 1014.4
20260506213033 13 185 8.0 17.7 0.00 0.00 0.00 25 1014.8
20260506212530 13 53 4.8 6.4 0.00 0.00 0.00 25 1014.8
20260506212025 13 214 3.2 4.8 0.00 0.00 0.00 26 1014.9
20260506211521 13 97 11.3 11.3 0.00 0.00 0.00 25 1015.0
20260506211018 13 128 11.3 17.7 0.00 0.00 0.00 27 1015.3
20260506210515 13 107 8.0 11.3 0.00 0.00 0.00 26 1015.1
20260506210011 12 211 3.2 8.0 0.00 0.00 0.00 28 1015.3
20260506205508 12 208 4.8 14.5 0.00 0.00 0.00 27 1015.3
20260506205003 12 346 9.7 11.3 0.00 0.00 0.00 27 1015.5
20260506204502 12 76 8.0 12.9 0.00 0.00 0.00 27 1015.6
20260506203958 12 223 0.0 11.3 0.00 0.00 0.00 27 1015.6
20260506203456 12 24 4.8 14.5 0.00 0.00 0.00 27 1015.6
20260506202953 12 168 8.0 24.1 0.00 0.00 0.00 28 1015.8
20260506202450 12 50 11.3 16.1 0.00 0.00 0.00 27 1015.6
20260506201946 11 42 6.4 17.7 0.00 0.00 0.00 28 1015.8
20260506201444 12 94 8.0 11.3 0.00 0.00 0.00 26 1015.6
20260506200940 12 199 3.2 8.0 0.00 0.00 0.00 29 1015.9
20260506200437 12 126 17.7 29.0 0.00 0.00 0.00 27 1016.1
20260506195933 12 351 6.4 8.0 0.00 0.00 0.00 27 1016.0
20260506195430 12 329 9.7 17.7 0.00 0.00 0.00 27 1016.1
20260506194927 11 47 11.3 12.9 0.00 0.00 0.00 28 1016.1
20260506194424 11 91 14.5 19.3 0.00 0.00 0.00 29 1016.2
20260506193921 11 63 11.3 32.2 0.00 0.00 0.00 28 1016.5
20260506193418 12 134 8.0 17.7 0.00 0.00 0.00 27 1016.2
20260506192914 11 217 3.2 9.7 0.00 0.00 0.00 28 1016.6
20260506192411 11 162 8.0 14.5 0.00 0.00 0.00 28 1016.2
20260506191908 11 151 4.8 22.5 0.00 0.00 0.00 29 1016.1
20260506191405 10 114 6.4 12.9 0.00 0.00 0.00 30 1016.3
20260506190902 10 78 17.7 27.4 0.00 0.00 0.00 29 1016.6
20260506190358 10 247 0.0 16.1 0.00 0.00 0.00 28 1016.7
20260506185855 11 81 12.9 14.5 0.00 0.00 0.00 28 1016.9
20260506185352 10 93 12.9 14.5 0.00 0.00 0.00 28 1016.7
20260506184849 10 183 9.7 17.7 0.00 0.00 0.00 29 1016.7
20260506184346 9 139 11.3 16.1 0.00 0.00 0.00 30 1017.0
20260506183843 10 131 4.8 14.5 0.00 0.00 0.00 31 1017.0
20260506183338 10 2 11.3 24.1 0.00 0.00 0.00 28 1017.1
20260506182836 10 139 8.0 8.0 0.00 0.00 0.00 31 1017.3
20260506182333 10 72 9.7 19.3 0.00 0.00 0.00 30 1017.1
20260506181831 11 110 8.0 17.7 0.00 0.00 0.00 29 1017.5
20260506181329 10 37 6.4 11.3 0.00 0.00 0.00 29 1017.4
20260506180825 10 285 4.8 9.7 0.00 0.00 0.00 29 1017.9
20260506180321 9 58 4.8 14.5 0.00 0.00 0.00 30 1017.6
20260506175818 10 70 24.1 24.1 0.00 0.00 0.00 29 1017.9
20260506175315 10 139 8.0 14.5 0.00 0.00 0.00 30 1017.9
20260506174812 9 74 6.4 20.9 0.00 0.00 0.00 31 1018.0
20260506174309 10 118 22.5 22.5 0.00 0.00 0.00 29 1018.1
20260506173807 10 153 11.3 19.3 0.00 0.00 0.00 30 1018.1
20260506173303 9 127 0.0 14.5 0.00 0.00 0.00 29 1018.1
20260506172800 8 143 11.3 22.5 0.00 0.00 0.00 31 1018.4
20260506172257 8 122 17.7 24.1 0.00 0.00 0.00 30 1018.3
20260506171755 8 97 11.3 27.4 0.00 0.00 0.00 31 1018.2
20260506171251 8 117 17.7 25.7 0.00 0.00 0.00 30 1018.5
20260506170749 8 101 9.7 17.7 0.00 0.00 0.00 31 1018.2
20260506170245 8 140 14.5 20.9 0.00 0.00 0.00 30 1018.6
20260506165744 8 72 8.0 12.9 0.00 0.00 0.00 30 1018.3
20260506165241 8 103 4.8 22.5 0.00 0.00 0.00 31 1018.4
20260506164738 8 112 16.1 16.1 0.00 0.00 0.00 30 1018.5